Location: Obersdorf
(47.4079°N, 10.2781°E)
Time: 07:44:49
(UTC+01:00)

AO-109 - Pass Details

Date: 04 December 2021
Orbit: 478 x 515 km, 60.7° (Epoch: 22 January)

Event Time Altitude Azimuth Distance (km) Brightness Sun altitude
Exits shadow 05:42:47 56° 351° (N) 577 ? -20.5°
Maximum altitude 05:43:21 68° 42° (NE) 521 ? -20.4°
Drops below altitude 10° 05:47:01 10° 127° (SE) 1,650 ? -19.8°
Sets 05:49:10 0° 130° (SE) 2,527 ? -19.5°
